Theta_e
307 317 322 324 322 322 319 322 324 325 325 319 318 319 328 337 338 337 333 333 331 331 332 335 337 336 333 327 325 328 330 331 330 331 329 328 322 319 330 329 327 325 320 324 326 325 326 325 321
307 319 323 323 320 318 318 322 326 322 318 317 320 324 327 336 325 328 330 334 331 331 333 335 336 337 336 331 326 323 321 319 319 320 320 322 324 329 331 330 328 320 318 325 325 325 325 313 310
310 322 322 321 319 317 318 321 319 317 315 316 320 334 326 318 318 316 320 334 332 332 334 334 334 336 336 336 331 326 324 321 320 327 326 327 330 331 331 328 319 316 324 325 324 324 320 310 310
322 322 320 321 319 322 322 318 315 316 317 315 317 325 316 314 314 314 322 335 333 333 335 334 333 335 334 334 334 328 326 321 324 328 331 330 330 331 327 320 312 322 324 324 325 320 310 310 309
321 320 319 319 320 322 316 314 313 315 315 315 319 322 326 315 313 314 317 330 336 333 334 334 332 334 334 333 333 330 326 320 322 327 327 328 325 326 323 313 318 323 324 324 324 312 309 308 308
317 316 316 317 317 317 314 313 313 314 313 314 316 319 323 316 316 315 314 318 331 334 333 333 332 333 333 332 331 329 326 320 319 324 325 326 323 321 314 312 322 324 324 324 324 309 308 308 308
315 314 315 314 315 315 314 313 313 314 313 313 313 319 319 316 313 313 312 313 322 331 332 333 333 333 332 331 330 329 325 321 320 326 326 325 323 316 316 312 320 325 324 324 319 308 308 308 308
313 314 314 313 314 315 313 313 312 313 314 311 312 316 315 311 312 312 312 312 313 322 330 331 334 333 332 331 330 329 323 321 318 326 329 328 322 321 320 315 313 322 323 323 317 308 308 308 308
312 313 314 314 314 314 314 314 313 311 313 312 312 311 310 309 310 311 311 312 313 313 318 328 330 333 332 332 330 329 326 321 319 321 329 330 328 325 322 318 316 313 323 323 319 309 308 308 308
313 313 314 313 314 314 314 313 313 313 313 313 312 311 309 308 309 309 310 310 311 312 312 314 321 330 330 332 331 330 330 322 321 320 326 330 330 329 326 320 316 313 312 322 320 311 309 308 312
312 313 313 313 314 313 313 313 312 313 314 311 310 309 308 308 308 308 309 309 309 309 310 311 312 315 324 330 330 331 330 328 324 326 325 327 330 330 328 320 317 316 315 315 321 317 314 317 312
314 313 313 313 312 313 313 312 312 312 311 308 308 307 307 308 308 308 308 308 309 309 309 309 310 311 313 318 329 329 331 330 329 324 324 323 328 329 328 321 318 317 316 313 319 320 318 312 309
314 313 313 312 312 312 311 312 312 312 308 308 307 307 307 307 307 307 308 308 309 309 310 309 309 310 311 312 316 325 329 331 330 328 326 322 323 328 329 324 320 316 312 311 313 317 313 310 309
313 313 312 312 312 312 312 312 311 311 308 308 307 307 307 307 307 307 308 308 308 307 308 309 309 309 309 310 312 315 322 329 329 330 329 323 324 326 328 323 321 318 312 309 310 310 310 310 310
311 314 312 312 312 313 311 313 313 308 308 308 307 307 307 306 306 306 305 307 307 307 306 308 308 309 310 310 310 311 315 324 329 329 328 326 321 326 328 326 323 321 313 309 310 310 309 311 311
313 312 314 312 312 312 311 314 311 308 308 308 307 306 306 306 306 306 305 306 306 307 308 308 308 309 309 311 311 311 312 319 326 329 329 328 321 322 327 325 323 321 314 310 312 311 312 313 313
312 314 313 312 311 312 313 314 310 308 308 308 307 307 305 306 305 305 305 306 306 308 307 308 307 308 309 310 311 311 311 315 321 328 327 328 324 322 325 325 322 321 316 311 315 317 316 313 314
317 314 312 312 311 312 313 314 312 308 307 308 307 306 306 305 305 305 304 305 306 308 308 308 308 307 308 309 311 312 311 313 320 325 325 327 324 323 322 325 322 320 318 313 316 318 316 315 315
312 313 313 311 310 311 313 313 313 308 308 308 307 306 305 305 304 304 305 306 306 307 308 307 307 307 306 309 310 312 313 314 316 327 324 328 326 325 323 323 323 321 319 316 316 318 317 316 315
312 313 313 310 309 310 313 314 312 308 308 307 306 305 304 303 302 303 305 305 306 306 307 306 305 305 307 309 311 312 314 318 319 324 324 326 325 326 323 324 323 322 319 319 319 319 319 317 317
311 314 312 311 310 310 311 314 311 309 307 307 306 305 303 302 300 301 304 305 304 304 306 306 305 306 307 309 310 312 316 321 322 324 323 324 325 325 326 324 322 322 320 321 319 318 317 318 317
309 308 309 311 312 317 310 326 308 309 308 307 306 305 303 300 300 300 304 304 304 304 305 305 305 306 309 312 312 312 317 320 322 323 323 324 324 325 326 322 322 322 322 321 320 318 318 319 319
307 308 310 310 312 313 313 316 318 305 310 309 307 304 301 299 298 298 300 303 304 303 305 305 305 306 312 314 316 316 319 321 321 322 323 324 324 326 326 322 324 321 322 321 320 320 321 321 321
307 309 308 310 313 316 310 312 321 313 311 309 306 304 300 298 298 298 298 298 303 304 304 305 307 306 310 314 318 318 319 319 321 321 324 323 323 323 323 325 324 322 321 318 318 321 320 320 319
309 309 316 317 315 317 308 310 318 309 307 308 307 303 300 298 297 297 297 298 301 303 303 305 306 306 306 311 315 317 318 319 321 321 321 321 322 321 322 323 322 321 321 319 317 317 315 315 312
309 309 310 315 312 311 306 312 314 307 305 306 305 301 299 298 297 297 297 297 298 302 302 303 306 307 307 307 308 313 313 317 316 316 319 316 316 315 316 317 317 315 314 312 311 310 309 309 309
309 310 306 308 304 312 310 309 308 306 306 305 305 301 300 299 297 297 297 297 297 301 301 302 304 306 307 310 309 309 309 312 311 312 314 313 312 312 312 311 311 311 309 310 309 308 308 312 312
307 307 310 310 313 312 309 307 311 309 308 307 304 302 300 298 297 297 297 297 297 298 302 302 302 304 306 308 308 308 310 310 311 311 311 311 311 310 310 308 308 308 310 312 310 309 308 309 310
308 309 308 307 309 309 310 312 309 310 309 309 306 303 300 299 297 297 297 296 297 297 300 302 302 302 304 305 306 306 307 309 308 308 308 308 309 309 309 310 309 308 308 308 308 308 306 304 302
306 308 307 309 308 309 309 310 305 307 307 307 307 304 299 298 297 297 296 296 296 297 298 301 302 301 302 303 303 304 306 306 306 308 307 307 307 307 309 307 305 304 303 301 301 300 299 298 297
Wind_Speed
8 8 5 1 4 4 2 2 2 1 1 6 13 7 6 8 5 3 14 11 12 11 9 13 12 12 14 13 13 13 14 14 13 14 13 13 12 10 9 7 5 4 4 6 10 10 10 12 9
7 9 5 1 4 5 3 0 3 3 11 15 6 2 3 4 9 9 10 15 8 7 9 13 15 15 14 15 14 13 13 14 15 15 15 13 12 12 11 8 6 6 4 10 9 8 9 9 9
11 12 4 2 2 3 2 2 5 9 7 12 4 8 4 7 9 11 17 15 10 7 7 13 18 17 17 14 14 13 13 11 11 13 14 14 14 12 12 10 9 9 10 9 10 11 10 9 8
9 4 2 4 3 2 2 3 8 9 1 9 7 5 6 11 8 16 17 12 10 6 5 13 17 17 19 17 15 14 13 12 13 14 14 13 13 13 13 12 10 10 12 11 10 11 11 9 8
8 2 3 3 3 2 2 6 6 6 3 8 8 2 6 3 14 13 13 10 10 9 6 12 16 17 19 19 17 16 15 14 15 15 17 17 15 14 14 11 11 12 13 12 11 11 11 10 9
3 2 4 5 4 3 1 7 3 5 5 5 5 4 4 3 16 16 14 13 10 8 6 11 15 18 19 20 20 18 17 16 18 18 17 18 16 14 12 10 13 13 14 13 12 12 10 10 10
2 3 2 3 3 4 1 8 3 6 5 5 8 5 4 7 21 19 18 16 12 11 8 11 14 17 20 21 22 21 19 18 20 20 19 17 15 13 10 9 12 14 13 13 13 12 11 10 10
2 1 4 2 4 3 3 4 4 7 3 4 8 4 6 24 26 24 21 18 14 13 14 13 16 18 19 22 24 23 21 22 22 21 20 19 16 14 11 9 10 14 14 14 13 11 11 11 11
3 2 2 3 3 3 3 4 3 4 4 2 6 7 14 23 26 25 23 20 18 13 14 16 18 19 22 21 24 24 23 24 24 23 23 22 20 18 14 12 10 11 15 15 13 12 12 12 11
1 1 3 2 2 1 3 2 4 4 5 3 8 13 18 21 23 24 24 24 24 22 18 17 18 22 24 25 23 25 26 27 27 26 26 26 25 22 17 14 12 12 15 15 14 14 14 12 10
3 2 5 3 2 1 1 1 2 5 0 7 16 21 20 20 19 19 20 20 22 24 24 23 23 20 22 26 27 27 28 28 26 25 25 27 28 27 20 18 15 14 17 17 16 13 12 11 11
4 4 3 3 1 1 2 3 1 6 4 10 12 15 18 20 19 19 19 21 23 23 23 24 25 25 25 25 28 30 28 31 31 32 27 29 30 29 26 20 17 16 14 14 15 12 13 13 13
5 5 4 3 2 4 3 2 2 2 8 10 12 14 17 18 18 19 18 19 20 22 23 22 24 26 26 28 27 30 32 29 34 34 33 33 31 30 28 21 19 17 16 16 15 14 14 14 14
4 6 6 3 2 1 5 2 3 1 10 12 13 14 15 17 18 20 19 20 22 21 23 25 24 23 24 27 27 29 32 33 33 36 40 31 29 28 28 25 20 18 18 17 17 16 15 15 14
7 5 2 1 2 2 2 4 3 5 10 14 15 16 18 18 19 18 21 21 22 25 25 28 29 25 24 25 27 28 28 32 28 35 31 35 29 28 33 27 22 21 18 18 18 18 17 15 14
2 2 3 3 2 1 3 1 3 5 11 13 17 18 19 21 21 21 20 21 21 24 29 33 29 27 26 25 27 29 28 28 28 31 30 31 22 35 41 30 26 22 19 19 18 17 16 14 13
1 3 3 1 1 2 2 4 4 4 8 12 15 17 17 20 21 20 21 21 21 23 29 32 28 24 24 26 25 29 28 27 29 30 28 27 25 32 40 33 29 23 20 20 18 17 16 15 14
4 3 2 4 2 2 6 9 2 4 6 8 10 12 16 20 21 21 22 24 25 23 26 30 29 26 22 26 26 23 27 26 28 30 30 32 31 31 35 35 30 25 21 20 20 18 16 15 13
4 2 1 2 0 5 4 9 7 4 4 6 7 11 14 16 18 20 23 24 23 24 27 27 30 28 26 24 22 19 19 19 26 30 30 25 24 34 31 31 36 26 22 21 18 19 18 16 14
2 1 2 4 3 3 7 13 9 8 5 5 8 11 13 14 17 20 27 29 26 28 31 35 28 27 25 22 21 16 15 17 22 26 26 27 16 27 24 36 26 27 23 23 20 20 19 16 13
3 2 2 3 6 2 10 5 5 6 10 9 11 10 10 13 17 19 21 28 32 33 33 32 32 23 21 17 16 13 16 14 20 21 23 24 22 20 27 30 29 26 25 22 18 19 19 16 14
3 4 3 1 6 4 4 4 4 6 8 9 10 9 11 13 15 18 20 26 31 36 36 31 33 23 15 10 9 12 16 15 17 20 22 22 24 20 22 28 28 33 27 23 17 18 18 18 17
2 3 1 1 2 5 2 2 1 2 6 8 7 6 8 11 14 17 20 22 29 32 40 35 35 24 12 10 5 11 15 14 15 15 16 20 18 21 23 29 25 28 20 22 18 19 21 21 22
6 3 2 1 2 3 2 2 3 5 5 3 5 5 6 9 12 16 20 22 24 31 35 37 41 30 19 15 9 9 12 13 16 12 14 18 25 21 19 28 31 29 23 21 18 17 15 13 11
3 3 1 2 2 2 3 3 7 5 7 5 4 5 6 7 10 16 21 24 25 27 31 39 37 31 26 24 17 12 12 13 17 16 19 13 12 15 19 20 24 23 20 17 17 18 17 14 20
5 2 2 4 2 2 2 6 2 2 4 6 6 6 5 6 7 12 16 20 22 22 25 28 33 37 30 32 32 28 27 22 26 29 26 30 32 33 33 31 27 32 32 31 32 31 29 24 21
4 4 2 2 1 3 3 5 8 5 7 9 10 9 7 5 4 9 13 16 19 20 21 24 27 31 32 40 39 38 42 42 44 45 42 43 42 41 40 40 38 35 34 33 33 27 21 15 13
4 5 2 1 3 4 4 5 6 8 14 12 12 13 8 5 2 5 9 13 15 17 17 18 21 27 28 31 34 36 38 39 40 43 44 42 40 39 37 34 34 33 30 22 18 18 15 12 12
4 3 2 2 3 2 3 4 4 9 11 15 16 14 10 6 3 2 6 9 13 14 14 16 18 20 22 26 29 32 34 34 37 39 39 36 33 32 30 26 26 25 23 19 17 16 15 13 12
1 4 8 4 4 2 2 7 5 6 6 13 16 15 13 9 6 2 2 5 8 10 12 14 16 18 20 19 21 24 23 26 30 31 27 29 27 26 23 23 24 23 21 20 18 17 15 12 10
Wind_Direction
213 199 189 217 233 241 198 137 333 50 227 350 307 269 37 34 1 14 326 330 311 327 231 211 216 234 234 225 220 213 211 221 220 225 219 222 232 217 198 192 216 237 240 177 165 176 181 186 168
177 165 165 169 248 238 114 93 170 344 331 329 323 324 166 81 22 327 347 320 333 322 223 210 214 222 229 227 222 222 225 226 231 229 230 220 207 194 194 212 237 244 223 177 167 178 166 162 164
152 157 190 228 250 283 112 82 330 326 330 353 346 42 48 355 341 341 335 336 335 325 229 218 217 222 229 232 226 226 228 225 218 208 208 198 192 204 210 239 246 223 182 189 179 181 188 171 171
137 148 93 245 227 87 37 359 343 335 56 11 353 80 92 39 2 346 347 342 335 314 253 233 218 228 230 231 231 230 229 221 212 212 201 195 206 223 245 253 234 199 188 188 188 182 182 184 185
143 161 180 204 180 129 101 6 340 338 348 359 353 80 165 0 1 353 354 351 339 316 250 230 227 231 234 232 231 232 227 229 217 214 223 224 235 241 254 254 213 197 194 198 193 197 189 191 195
137 188 207 224 172 143 117 358 307 337 349 353 360 320 188 19 340 351 351 349 331 316 278 236 234 235 241 236 234 233 229 230 224 219 222 221 226 239 248 244 205 200 201 203 203 198 201 200 203
167 211 177 160 156 177 73 346 1 340 338 6 337 294 288 319 335 336 341 336 325 301 284 239 240 248 243 242 239 236 233 230 231 226 221 222 224 224 240 238 212 203 209 208 210 205 208 210 213
105 199 146 154 176 133 23 354 0 357 14 339 356 354 327 323 327 327 325 322 316 301 280 266 258 236 246 245 243 236 235 233 232 232 227 222 224 221 227 236 234 208 215 220 215 213 215 216 219
101 209 166 134 179 116 15 349 14 339 328 24 13 5 319 323 323 321 316 307 298 290 285 274 266 259 252 242 247 243 238 235 234 232 232 226 221 222 220 220 245 236 214 226 224 222 220 223 228
27 241 94 78 77 37 8 337 334 312 336 319 332 322 328 331 334 329 326 319 308 297 287 280 268 258 258 255 243 244 240 235 234 232 230 228 225 225 228 220 235 244 239 222 226 226 226 227 233
33 71 127 136 58 13 4 299 353 320 314 355 327 323 329 331 331 331 327 324 314 303 294 285 279 268 257 253 251 245 244 237 232 228 228 229 230 230 229 221 224 231 243 234 226 230 232 235 234
109 92 99 123 102 115 351 318 70 51 357 321 317 322 327 327 328 329 325 323 321 313 302 291 282 273 268 257 247 251 248 242 237 236 227 230 230 231 226 223 229 228 232 244 219 224 231 238 242
93 135 110 111 124 60 3 27 207 91 348 334 330 327 325 327 326 326 324 324 323 318 314 304 296 281 266 261 255 244 246 248 242 240 231 231 231 231 228 226 232 237 244 243 236 227 236 242 247
111 131 120 72 55 125 356 111 186 322 339 339 333 333 332 332 329 329 328 327 331 326 323 315 309 297 284 265 255 251 243 242 245 245 241 226 231 233 217 225 231 241 246 242 238 235 237 244 250
121 134 144 176 355 214 339 203 212 330 334 339 344 341 340 344 340 334 332 326 327 333 330 328 316 304 289 282 267 254 248 234 251 250 248 215 227 240 229 229 233 243 242 238 237 237 240 247 254
133 172 217 159 322 174 320 303 163 342 335 347 354 351 348 345 341 333 330 331 328 332 334 326 318 308 299 280 271 262 250 237 240 246 249 241 236 231 239 225 231 238 238 234 233 232 236 242 250
158 233 222 216 155 314 308 307 177 325 338 357 0 0 358 353 347 343 338 335 329 337 341 329 324 313 305 291 275 261 254 241 225 250 240 240 228 223 236 231 231 234 234 232 230 231 236 241 244
183 203 230 271 143 261 290 264 245 301 346 347 359 1 8 8 1 352 350 346 339 334 340 338 334 323 309 299 279 263 252 241 228 230 238 242 220 230 220 230 227 227 228 227 229 231 236 238 242
111 144 252 259 324 310 253 273 299 228 281 341 343 337 344 355 4 4 2 4 356 2 352 340 334 325 313 302 290 275 252 236 225 224 234 237 238 226 222 227 227 223 227 228 235 232 236 242 239
135 164 256 277 243 295 288 283 275 218 264 283 307 314 326 331 337 351 3 5 5 1 356 1 341 326 307 298 286 259 232 224 217 223 231 232 239 229 215 231 221 221 224 224 229 230 236 239 238
186 203 201 291 325 250 306 263 206 223 251 269 277 293 317 335 342 346 359 6 6 8 1 358 349 339 310 293 277 237 213 202 206 216 225 225 229 228 251 210 217 214 226 226 232 234 236 240 240
240 189 176 314 331 299 349 294 232 226 256 261 276 301 323 339 352 355 359 1 8 10 9 1 357 356 330 312 275 211 193 205 199 208 216 222 227 223 232 206 216 212 212 214 221 230 235 238 239
81 150 166 347 285 304 172 256 192 213 255 239 244 283 319 339 353 356 6 12 6 12 13 11 7 12 12 359 319 197 187 196 195 201 209 219 225 228 220 212 218 211 208 213 215 225 233 235 243
133 140 94 88 267 251 117 320 238 198 201 191 221 271 311 342 355 1 8 8 13 13 15 19 22 22 49 51 39 151 183 180 189 198 203 211 220 217 217 223 211 200 204 207 213 221 237 227 206
196 210 305 256 220 280 148 248 269 224 213 207 218 258 299 335 358 4 10 11 16 20 19 22 25 36 50 78 98 131 159 173 155 166 184 181 186 185 185 212 191 176 187 189 197 160 149 145 119
192 245 237 273 274 329 142 235 255 238 220 218 234 255 277 316 3 9 15 16 16 22 24 27 35 37 54 78 89 109 120 146 132 136 140 131 129 128 130 127 127 120 117 115 112 110 110 111 108
159 205 50 107 83 278 216 249 246 201 210 221 228 247 254 281 358 13 20 24 21 25 30 30 39 49 54 66 81 96 107 114 113 112 117 113 110 111 112 108 107 104 107 104 102 102 111 119 114
268 141 134 209 241 256 228 266 246 209 217 214 224 231 235 250 321 17 20 28 32 31 37 44 44 48 53 64 75 83 92 98 102 108 107 107 109 109 102 102 104 109 106 115 116 118 126 134 130
160 208 191 299 244 259 292 243 199 195 197 199 208 218 218 213 234 11 35 29 36 37 45 52 60 59 60 59 65 80 82 87 89 96 97 100 104 107 111 111 115 117 120 126 131 126 118 116 108
253 234 191 224 195 243 323 270 171 202 202 199 195 201 207 208 215 196 24 51 48 50 59 62 68 73 75 74 71 81 81 84 89 97 98 105 109 113 114 114 114 115 117 117 113 109 107 102 97